Location: Borea
(45.6167°N, 23.0167°E)
Time: 10:26:45
(UTC+00:00)

Cosmos 44 Rocket - Pass Details

Date: 03 February 2023
Orbit: 646 x 742 km, 65.1° (Epoch: 30 March)

Event Time Altitude Azimuth Distance (km) Brightness Sun altitude
Rises 18:04:07 0° 217° (SW) 2,951 7.0 -26.0°
Reaches altitude 10° 18:06:23 10° 219° (SW) 2,051 6.1 -26.4°
Enters shadow 18:10:22 64° 241° (WSW) 730 3.5 -27.1°
